Hourly Data Report for November 31, 2014

All times are specified in Local Standard Time (LST). Add 1 hour to adjust for Daylight Saving Time where and when it is observed.

Metadata including Station Name, Province, Latitude, Longitude, Elevation, Climate ID, WMO ID, TC ID
PUVIRNITUQ A
QUEBEC
Latitude: 60°03'08.000" N Longitude: 77°17'15.000" W Elevation: 25.30 m
Climate ID: 7106223 WMO ID: TC ID: YPX
Hourly Data Report for October 30, 2014
Temp Definition
°C

Dew Point Temp Definition
°C

Rel Hum Definition
%

Wind Dir Definition
10's deg
Wind Spd Definition
km/h

Visibility Definition
km

Stn Press Definition
kPa

Hmdx Definition

Wind Chill Definition

Weather Definition

00:00 Legend Double Dagger -3.2 -4.0 94 35 37 4.8 99.75 -11 Snow
01:00 Legend Double Dagger -3.4 -4.2 94 35 37 4.8 99.74 -12 Snow
02:00 Legend Double Dagger -3.4 -4.5 92 35 41 16.1 99.75 -12 Snow
03:00 Legend Double Dagger -3.5 -4.5 93 35 41 6.4 99.75 -12 Snow
04:00 Legend Double Dagger -3.5 -4.5 93 34 41 4.8 99.77 -12 Snow
05:00 Legend Double Dagger -3.7 -4.5 94 34 45 3.2 99.77 -13 Snow
06:00 Legend Double Dagger -3.8 -4.6 94 34 48 2.0 99.79 -13 Snow
07:00 Legend Double Dagger -3.8 -4.8 93 34 45 2.4 99.83 -13 Snow
08:00 Legend Double Dagger -4.0 -4.8 94 34 48 1.6 99.84 -13 Snow
09:00 Legend Double Dagger -4.1 -5.1 93 34 54 2.0 99.86 -14 Snow
10:00 Legend Double Dagger -4.0 -5.3 91 34 50 4.8 99.91 -14 Snow
11:00 Legend Double Dagger -4.1 -5.2 92 33 52 1.6 99.94 -14 Snow
12:00 Legend Double Dagger -3.8 -4.9 92 33 41 4.0 100.02 -13 Snow
13:00 Legend Double Dagger -3.8 -5.2 90 33 48 4.8 100.03 -13 Snow
14:00 Legend Double Dagger -3.8 -5.2 90 32 43 4.0 100.09 -13 Snow
15:00 Legend Double Dagger -3.8 -5.2 90 33 46 4.8 100.14 -13 Snow
16:00 Legend Double Dagger -4.0 -5.6 89 33 46 4.8 100.20 -13 Snow
17:00 Legend Double Dagger -4.2 -5.9 88 33 46 16.1 100.24 -14 Snow
18:00 Legend Double Dagger -4.2 -6.5 84 33 52 16.1 100.29 -14 Snow
19:00 Legend Double Dagger -4.4 -7.0 82 33 48 16.1 100.36 -14 LegendNANA
20:00 Legend Double Dagger -4.7 -7.0 84 33 50 16.1 100.40 -15 Snow
21:00 Legend Double Dagger -4.6 -7.4 81 33 43 16.1 100.41 -14 LegendNANA
22:00 Legend Double Dagger -4.6 -7.0 83 34 46 16.1 100.41 -14 Snow
23:00 Legend Double Dagger -4.5 -6.5 86 33 37 16.1 100.45 -13 Snow

Notes on Data Quality.

Legend
  • E = Estimated
  • M = Missing
  • NA = Not Available
  • ‡ = Partner data that is not subject to review by the National Climate Archives